Time,TemperatureF,DewpointF,PressureIn,WindDirection,WindDirectionDegrees,WindSpeedMPH,WindSpeedGustMPH,Humidity,HourlyPrecipIn,Conditions,Clouds,dailyrainin,SoftwareType,DateUTC
2013-05-17 00:03:00,64.0,55.0,29.81,South,190,12.0,17.0,72,-99.99,,,-99.99,,2013-05-17 05:03:00,
2013-05-17 00:14:00,63.0,55.0,29.81,South,170,13.0,16.0,77,-99.99,,,-99.99,,2013-05-17 05:14:00,
2013-05-17 00:22:00,64.0,55.0,29.81,South,170,9.0,-999.0,72,-99.99,,,-99.99,,2013-05-17 05:22:00,
2013-05-17 00:32:00,64.0,55.0,29.80,SSE,150,8.0,-999.0,72,-99.99,,,-99.99,,2013-05-17 05:32:00,
2013-05-17 00:42:00,64.0,55.0,29.80,SSE,150,7.0,-999.0,72,-99.99,,,-99.99,,2013-05-17 05:42:00,
2013-05-17 00:52:00,63.0,55.0,29.80,South,180,7.0,-999.0,77,-99.99,,,-99.99,,2013-05-17 05:52:00,
2013-05-17 01:02:00,63.0,55.0,29.80,South,180,7.0,-999.0,77,-99.99,,,-99.99,,2013-05-17 06:02:00,
2013-05-17 01:11:00,61.0,54.0,29.80,SW,230,5.0,-999.0,77,-99.99,,,-99.99,,2013-05-17 06:11:00,
2013-05-17 01:21:00,61.0,55.0,29.80,South,170,6.0,-999.0,82,-99.99,,,-99.99,,2013-05-17 06:21:00,
2013-05-17 01:32:00,63.0,55.0,29.80,SW,220,3.0,-999.0,77,-99.99,,,-99.99,,2013-05-17 06:32:00,
2013-05-17 01:42:00,61.0,54.0,29.80,North,0,0.0,-999.0,77,-99.99,,,-99.99,,2013-05-17 06:42:00,
2013-05-17 01:51:00,61.0,54.0,29.80,South,170,5.0,-999.0,77,-99.99,,,-99.99,,2013-05-17 06:51:00,
2013-05-17 02:02:00,61.0,54.0,29.80,South,170,5.0,-999.0,77,-99.99,,,-99.99,,2013-05-17 07:02:00,
2013-05-17 02:11:00,57.0,54.0,29.82,ENE,60,3.0,-999.0,87,-99.99,,,-99.99,,2013-05-17 07:11:00,
2013-05-17 02:21:00,59.0,54.0,29.83,North,10,3.0,-999.0,82,-99.99,,,-99.99,,2013-05-17 07:21:00,
2013-05-17 02:32:00,55.0,52.0,29.84,North,0,0.0,-999.0,87,-99.99,,,-99.99,,2013-05-17 07:32:00,
2013-05-17 02:43:00,55.0,52.0,29.84,North,0,0.0,-999.0,87,-99.99,,,-99.99,,2013-05-17 07:43:00,
2013-05-17 02:53:00,54.0,52.0,29.84,WSW,250,5.0,-999.0,93,-99.99,,,-99.99,,2013-05-17 07:53:00,
2013-05-17 03:02:00,54.0,52.0,29.84,WSW,250,5.0,-999.0,93,-99.99,,,-99.99,,2013-05-17 08:02:00,
2013-05-17 03:12:00,54.0,52.0,29.86,West,270,6.0,-999.0,93,-99.99,,,-99.99,,2013-05-17 08:12:00,
2013-05-17 03:22:00,55.0,52.0,29.86,WNW,290,7.0,-999.0,87,-99.99,,,-99.99,,2013-05-17 08:22:00,
2013-05-17 03:33:00,55.0,52.0,29.86,WNW,290,6.0,-999.0,87,-99.99,,,-99.99,,2013-05-17 08:33:00,
2013-05-17 03:42:00,55.0,52.0,29.86,West,280,6.0,-999.0,87,-99.99,,,-99.99,,2013-05-17 08:42:00,
2013-05-17 03:51:00,55.0,52.0,29.87,WNW,300,6.0,-999.0,87,-99.99,,,-99.99,,2013-05-17 08:51:00,
2013-05-17 04:02:00,55.0,52.0,29.87,WNW,300,6.0,-999.0,87,-99.99,,,-99.99,,2013-05-17 09:02:00,
2013-05-17 04:12:00,55.0,52.0,29.87,NW,310,5.0,-999.0,87,-99.99,,,-99.99,,2013-05-17 09:12:00,
2013-05-17 04:22:00,55.0,52.0,29.87,WNW,290,3.0,-999.0,87,-99.99,,,-99.99,,2013-05-17 09:22:00,
2013-05-17 04:33:00,54.0,52.0,29.87,West,280,3.0,-999.0,93,-99.99,,,-99.99,,2013-05-17 09:33:00,
2013-05-17 04:42:00,54.0,52.0,29.87,West,280,5.0,-999.0,93,-99.99,,,-99.99,,2013-05-17 09:42:00,
2013-05-17 04:53:00,54.0,52.0,29.87,North,0,0.0,-999.0,93,-99.99,,,-99.99,,2013-05-17 09:53:00,
2013-05-17 05:03:00,54.0,52.0,29.87,North,0,0.0,-999.0,93,-99.99,,,-99.99,,2013-05-17 10:03:00,
2013-05-17 05:12:00,54.0,52.0,29.86,SE,130,3.0,-999.0,93,-99.99,,,-99.99,,2013-05-17 10:12:00,
2013-05-17 05:23:00,54.0,54.0,29.86,South,190,5.0,-999.0,100,-99.99,,,-99.99,,2013-05-17 10:23:00,
2013-05-17 05:33:00,54.0,54.0,29.86,SSE,160,5.0,-999.0,100,-99.99,,,-99.99,,2013-05-17 10:33:00,
2013-05-17 05:42:00,55.0,54.0,29.86,SSE,160,6.0,-999.0,93,-99.99,,,-99.99,,2013-05-17 10:42:00,
2013-05-17 05:53:00,55.0,54.0,29.85,SSE,150,6.0,-999.0,93,-99.99,,,-99.99,,2013-05-17 10:53:00,
2013-05-17 06:02:00,55.0,54.0,29.85,SSE,150,6.0,-999.0,93,-99.99,,,-99.99,,2013-05-17 11:02:00,
2013-05-17 06:12:00,57.0,54.0,29.84,SE,130,5.0,-999.0,87,-99.99,,,-99.99,,2013-05-17 11:12:00,
2013-05-17 06:22:00,55.0,54.0,29.83,SE,140,6.0,-999.0,93,-99.99,,,-99.99,,2013-05-17 11:22:00,
2013-05-17 06:34:00,57.0,55.0,29.82,East,90,5.0,-999.0,93,-99.99,,,-99.99,,2013-05-17 11:34:00,
2013-05-17 06:42:00,55.0,55.0,29.82,ESE,110,8.0,-999.0,100,-99.99,,,-99.99,,2013-05-17 11:42:00,
2013-05-17 06:52:00,57.0,55.0,29.82,ESE,120,7.0,-999.0,93,-99.99,,,-99.99,,2013-05-17 11:52:00,
2013-05-17 07:03:00,57.0,55.0,29.82,ESE,120,7.0,-999.0,93,-99.99,,,-99.99,,2013-05-17 12:03:00,
2013-05-17 07:12:00,59.0,55.0,29.83,South,180,5.0,-999.0,87,-99.99,,,-99.99,,2013-05-17 12:12:00,
2013-05-17 07:23:00,59.0,55.0,29.85,South,190,5.0,-999.0,87,-99.99,,,-99.99,,2013-05-17 12:23:00,
2013-05-17 07:32:00,59.0,55.0,29.87,WNW,290,7.0,-999.0,87,-99.99,,,-99.99,,2013-05-17 12:32:00,
2013-05-17 07:43:00,59.0,55.0,29.87,WSW,240,3.0,-999.0,87,-99.99,,,-99.99,,2013-05-17 12:43:00,
2013-05-17 07:53:00,59.0,57.0,29.88,North,0,0.0,-999.0,93,-99.99,,,-99.99,,2013-05-17 12:53:00,
2013-05-17 08:03:00,59.0,57.0,29.88,North,0,0.0,-999.0,93,-99.99,,,-99.99,,2013-05-17 13:03:00,
2013-05-17 08:12:00,61.0,57.0,29.88,North,0,0.0,-999.0,87,-99.99,,,-99.99,,2013-05-17 13:12:00,
2013-05-17 08:23:00,61.0,57.0,29.89,North,0,0.0,-999.0,87,-99.99,,,-99.99,,2013-05-17 13:23:00,
2013-05-17 08:33:00,63.0,57.0,29.89,North,0,0.0,-999.0,82,-99.99,,,-99.99,,2013-05-17 13:33:00,
2013-05-17 08:42:00,63.0,57.0,29.89,SE,140,3.0,-999.0,82,-99.99,,,-99.99,,2013-05-17 13:42:00,
2013-05-17 08:52:00,64.0,59.0,29.89,SE,140,6.0,-999.0,82,-99.99,,,-99.99,,2013-05-17 13:52:00,
2013-05-17 09:02:00,64.0,59.0,29.89,SE,140,6.0,-999.0,82,-99.99,,,-99.99,,2013-05-17 14:02:00,
2013-05-17 09:13:00,64.0,59.0,29.89,SE,130,7.0,-999.0,82,-99.99,,,-99.99,,2013-05-17 14:13:00,
2013-05-17 09:22:00,66.0,61.0,29.89,SE,140,7.0,-999.0,82,-99.99,,,-99.99,,2013-05-17 14:22:00,
2013-05-17 09:34:00,66.0,61.0,29.89,SE,140,7.0,-999.0,82,-99.99,,,-99.99,,2013-05-17 14:34:00,
2013-05-17 09:43:00,66.0,61.0,29.89,SSE,150,6.0,-999.0,82,-99.99,,,-99.99,,2013-05-17 14:43:00,
2013-05-17 09:53:00,68.0,61.0,29.89,SSE,150,7.0,-999.0,77,-99.99,,,-99.99,,2013-05-17 14:53:00,
2013-05-17 10:03:00,68.0,61.0,29.89,SSE,150,7.0,-999.0,77,-99.99,,,-99.99,,2013-05-17 15:03:00,
2013-05-17 10:14:00,70.0,63.0,29.89,SE,140,8.0,-999.0,77,-99.99,,,-99.99,,2013-05-17 15:14:00,
2013-05-17 10:25:00,70.0,63.0,29.89,South,170,8.0,-999.0,77,-99.99,,,-99.99,,2013-05-17 15:25:00,
2013-05-17 10:37:00,72.0,63.0,29.89,SSE,150,9.0,-999.0,73,-99.99,,,-99.99,,2013-05-17 15:37:00,
2013-05-17 10:47:00,72.0,63.0,29.89,SSE,150,7.0,-999.0,73,-99.99,,,-99.99,,2013-05-17 15:47:00,
2013-05-17 10:56:00,73.0,63.0,29.89,SSE,150,7.0,-999.0,68,-99.99,,,-99.99,,2013-05-17 15:56:00,
2013-05-17 11:07:00,73.0,63.0,29.89,SSE,150,7.0,-999.0,68,-99.99,,,-99.99,,2013-05-17 16:07:00,
2013-05-17 11:13:00,73.0,63.0,29.89,SSE,160,8.0,-999.0,68,-99.99,,,-99.99,,2013-05-17 16:13:00,
2013-05-17 11:26:00,73.0,63.0,29.89,SSE,160,8.0,-999.0,68,-99.99,,,-99.99,,2013-05-17 16:26:00,
2013-05-17 11:37:00,73.0,63.0,29.89,SE,130,9.0,-999.0,68,-99.99,,,-99.99,,2013-05-17 16:37:00,
2013-05-17 11:49:00,75.0,63.0,29.89,SSE,160,8.0,-999.0,64,-99.99,,,-99.99,,2013-05-17 16:49:00,
2013-05-17 11:56:00,75.0,63.0,29.89,SE,140,6.0,-999.0,64,-99.99,,,-99.99,,2013-05-17 16:56:00,
2013-05-17 12:08:00,75.0,63.0,29.89,SE,140,6.0,-999.0,64,-99.99,,,-99.99,,2013-05-17 17:08:00,
2013-05-17 12:18:00,77.0,63.0,29.88,SE,130,9.0,-999.0,61,-99.99,,,-99.99,,2013-05-17 17:18:00,
2013-05-17 12:29:00,79.0,63.0,29.88,SE,140,10.0,-999.0,57,-99.99,,,-99.99,,2013-05-17 17:29:00,
2013-05-17 12:40:00,79.0,-99.9,29.88,SSE,150,8.0,16.0,54,-99.99,,,-99.99,,2013-05-17 17:40:00,
2013-05-17 12:49:00,79.0,61.0,29.87,SE,140,12.0,16.0,54,-99.99,,,-99.99,,2013-05-17 17:49:00,
2013-05-17 13:00:00,81.0,61.0,29.87,SSE,150,10.0,17.0,50,-99.99,,,-99.99,,2013-05-17 18:00:00,
2013-05-17 13:08:00,81.0,61.0,29.87,SSE,150,10.0,17.0,50,-99.99,,,-99.99,,2013-05-17 18:08:00,
2013-05-17 13:20:00,81.0,59.0,29.87,SSE,160,12.0,-999.0,47,-99.99,,,-99.99,,2013-05-17 18:20:00,
2013-05-17 13:30:00,81.0,59.0,29.86,SSE,150,9.0,16.0,47,-99.99,,,-99.99,,2013-05-17 18:30:00,
2013-05-17 13:40:00,82.0,-99.9,29.86,SSE,160,15.0,-999.0,45,-99.99,,,-99.99,,2013-05-17 18:40:00,
2013-05-17 13:50:00,-999.0,-99.9,29.86,SSE,150,10.0,-999.0,42,-99.99,,,-99.99,,2013-05-17 18:50:00,
2013-05-17 14:00:00,82.0,57.0,29.86,SSE,150,10.0,21.0,42,-99.99,,,-99.99,,2013-05-17 19:00:00,
2013-05-17 14:10:00,82.0,57.0,29.86,SSE,150,10.0,21.0,42,-99.99,,,-99.99,,2013-05-17 19:10:00,
2013-05-17 14:20:00,84.0,59.0,29.85,ESE,120,12.0,20.0,42,-99.99,,,-99.99,,2013-05-17 19:20:00,
2013-05-17 14:30:00,84.0,57.0,29.85,SSE,150,14.0,20.0,39,-99.99,,,-99.99,,2013-05-17 19:30:00,
2013-05-17 14:40:00,84.0,57.0,29.84,ESE,120,13.0,18.0,39,-99.99,,,-99.99,,2013-05-17 19:40:00,
2013-05-17 14:50:00,84.0,59.0,29.84,SSE,160,15.0,-999.0,42,-99.99,,,-99.99,,2013-05-17 19:50:00,
2013-05-17 15:00:00,84.0,-99.9,29.84,SE,130,15.0,-999.0,39,-99.99,,,-99.99,,2013-05-17 20:00:00,
2013-05-17 15:09:00,84.0,57.0,29.84,SE,130,15.0,-999.0,39,-99.99,,,-99.99,,2013-05-17 20:09:00,
2013-05-17 15:20:00,84.0,57.0,29.84,SE,130,13.0,20.0,39,-99.99,,,-99.99,,2013-05-17 20:20:00,
2013-05-17 15:30:00,84.0,57.0,29.84,SE,140,14.0,-999.0,39,-99.99,,,-99.99,,2013-05-17 20:30:00,
2013-05-17 15:40:00,86.0,59.0,29.84,ESE,120,14.0,20.0,40,-99.99,,,-99.99,,2013-05-17 20:40:00,
2013-05-17 15:49:00,86.0,57.0,29.84,ESE,120,15.0,24.0,37,-99.99,,,-99.99,,2013-05-17 20:49:00,
2013-05-17 15:58:00,86.0,57.0,29.83,SE,130,15.0,21.0,37,-99.99,,,-99.99,,2013-05-17 20:58:00,
2013-05-17 16:07:00,86.0,57.0,29.83,SE,130,15.0,21.0,37,-99.99,,,-99.99,,2013-05-17 21:07:00,
2013-05-17 16:16:00,86.0,57.0,29.83,ESE,120,15.0,21.0,37,-99.99,,,-99.99,,2013-05-17 21:16:00,
2013-05-17 16:26:00,86.0,55.0,29.82,SE,130,16.0,-999.0,35,-99.99,,,-99.99,,2013-05-17 21:26:00,
2013-05-17 16:39:00,86.0,55.0,29.82,SE,130,17.0,-999.0,35,-99.99,,,-99.99,,2013-05-17 21:39:00,
2013-05-17 16:49:00,86.0,55.0,29.82,ESE,120,14.0,23.0,35,-99.99,,,-99.99,,2013-05-17 21:49:00,
2013-05-17 16:57:00,86.0,57.0,29.81,ESE,120,17.0,23.0,37,-99.99,,,-99.99,,2013-05-17 21:57:00,
2013-05-17 17:07:00,86.0,57.0,29.81,ESE,120,17.0,23.0,37,-99.99,,,-99.99,,2013-05-17 22:07:00,
2013-05-17 17:17:00,86.0,57.0,29.81,ESE,120,16.0,25.0,37,-99.99,,,-99.99,,2013-05-17 22:17:00,
2013-05-17 17:28:00,88.0,55.0,29.80,SE,140,16.0,20.0,33,-99.99,,,-99.99,,2013-05-17 22:28:00,
2013-05-17 17:38:00,86.0,55.0,29.80,SE,140,18.0,24.0,35,-99.99,,,-99.99,,2013-05-17 22:38:00,
2013-05-17 17:47:00,86.0,55.0,29.80,SE,130,17.0,22.0,35,-99.99,,,-99.99,,2013-05-17 22:47:00,
2013-05-17 17:54:00,86.0,57.0,29.80,SE,130,15.0,25.0,37,-99.99,,,-99.99,,2013-05-17 22:54:00,
2013-05-17 18:04:00,86.0,57.0,29.80,SE,130,15.0,25.0,37,-99.99,,,-99.99,,2013-05-17 23:04:00,
2013-05-17 18:13:00,86.0,55.0,29.80,ESE,110,20.0,27.0,35,-99.99,,,-99.99,,2013-05-17 23:13:00,
2013-05-17 18:23:00,84.0,57.0,29.80,SE,130,16.0,21.0,39,-99.99,,,-99.99,,2013-05-17 23:23:00,
2013-05-17 18:37:00,84.0,57.0,29.79,SE,130,16.0,24.0,39,-99.99,,,-99.99,,2013-05-17 23:37:00,
2013-05-17 18:47:00,84.0,57.0,29.79,ESE,120,20.0,24.0,39,-99.99,,,-99.99,,2013-05-17 23:47:00,
2013-05-17 18:54:00,84.0,57.0,29.79,ESE,120,18.0,24.0,39,-99.99,,,-99.99,,2013-05-17 23:54:00,
2013-05-17 19:02:00,84.0,57.0,29.79,ESE,120,18.0,24.0,39,-99.99,,,-99.99,,2013-05-18 00:02:00,
2013-05-17 19:14:00,84.0,57.0,29.79,SE,130,14.0,23.0,39,-99.99,,,-99.99,,2013-05-18 00:14:00,
2013-05-17 19:21:00,84.0,57.0,29.79,SE,140,18.0,24.0,39,-99.99,,,-99.99,,2013-05-18 00:21:00,
2013-05-17 19:33:00,82.0,59.0,29.79,SE,130,15.0,27.0,45,-99.99,,,-99.99,,2013-05-18 00:33:00,
2013-05-17 19:44:00,82.0,59.0,29.79,SE,140,16.0,24.0,45,-99.99,,,-99.99,,2013-05-18 00:44:00,
2013-05-17 19:54:00,82.0,61.0,29.79,SE,130,17.0,22.0,48,-99.99,,,-99.99,,2013-05-18 00:54:00,
2013-05-17 20:02:00,82.0,61.0,29.79,SE,130,17.0,22.0,48,-99.99,,,-99.99,,2013-05-18 01:02:00,
2013-05-17 20:13:00,81.0,61.0,29.79,SE,130,15.0,18.0,50,-99.99,,,-99.99,,2013-05-18 01:13:00,
2013-05-17 20:24:00,81.0,57.0,29.79,SE,130,13.0,-999.0,44,-99.99,,,-99.99,,2013-05-18 01:24:00,
2013-05-17 20:32:00,79.0,59.0,29.79,SE,130,13.0,20.0,50,-99.99,,,-99.99,,2013-05-18 01:32:00,
2013-05-17 20:42:00,79.0,59.0,29.79,SE,130,13.0,-999.0,50,-99.99,,,-99.99,,2013-05-18 01:42:00,
2013-05-17 20:52:00,77.0,61.0,29.79,SE,130,13.0,-999.0,57,-99.99,,,-99.99,,2013-05-18 01:52:00,
2013-05-17 21:02:00,77.0,61.0,29.79,SE,130,13.0,-999.0,57,-99.99,,,-99.99,,2013-05-18 02:02:00,
2013-05-17 21:12:00,75.0,61.0,29.79,SE,130,12.0,17.0,60,-99.99,,,-99.99,,2013-05-18 02:12:00,
2013-05-17 21:22:00,75.0,61.0,29.80,SE,130,13.0,17.0,60,-99.99,,,-99.99,,2013-05-18 02:22:00,
2013-05-17 21:31:00,73.0,61.0,29.80,SE,130,12.0,-999.0,64,-99.99,,,-99.99,,2013-05-18 02:31:00,
2013-05-17 21:42:00,73.0,61.0,29.80,SE,130,12.0,16.0,64,-99.99,,,-99.99,,2013-05-18 02:42:00,
2013-05-17 21:53:00,73.0,61.0,29.81,ESE,120,10.0,-999.0,64,-99.99,,,-99.99,,2013-05-18 02:53:00,
2013-05-17 22:02:00,73.0,61.0,29.81,ESE,120,10.0,-999.0,64,-99.99,,,-99.99,,2013-05-18 03:02:00,
2013-05-17 22:12:00,73.0,61.0,29.82,ESE,110,9.0,-999.0,64,-99.99,,,-99.99,,2013-05-18 03:12:00,
2013-05-17 22:22:00,72.0,61.0,29.82,ESE,120,10.0,-999.0,68,-99.99,,,-99.99,,2013-05-18 03:22:00,
2013-05-17 22:32:00,72.0,61.0,29.82,ESE,120,10.0,-999.0,68,-99.99,,,-99.99,,2013-05-18 03:32:00,
2013-05-17 22:43:00,72.0,61.0,29.82,ESE,110,12.0,-999.0,68,-99.99,,,-99.99,,2013-05-18 03:43:00,
2013-05-17 22:53:00,72.0,61.0,29.82,ESE,120,10.0,16.0,68,-99.99,,,-99.99,,2013-05-18 03:53:00,
2013-05-17 23:02:00,72.0,61.0,29.82,ESE,120,10.0,16.0,68,-99.99,,,-99.99,,2013-05-18 04:02:00,
2013-05-17 23:12:00,70.0,61.0,29.82,SE,130,9.0,-999.0,73,-99.99,,,-99.99,,2013-05-18 04:12:00,
2013-05-17 23:23:00,70.0,61.0,29.84,SE,140,12.0,16.0,73,-99.99,,,-99.99,,2013-05-18 04:23:00,
2013-05-17 23:33:00,70.0,61.0,29.84,SE,140,9.0,-999.0,73,-99.99,,,-99.99,,2013-05-18 04:33:00,
2013-05-17 23:42:00,70.0,61.0,29.84,SE,140,9.0,-999.0,73,-99.99,,,-99.99,,2013-05-18 04:42:00,
2013-05-17 23:52:00,70.0,61.0,29.84,SE,130,8.0,-999.0,73,-99.99,,,-99.99,,2013-05-18 04:52:00,